EW8153 Weather Reports


time (UTC)temp
C
wind
direction
speed
KPH
gust
KPH
rain 1hr
cm
rain 24hr
cm
rain mn
cm
humidity
%
barometer
mb
20260507052525 7 22 1.6 8.0 0.00 0.00 0.00 90 1015.4
20260507052023 7 59 1.6 6.4 0.00 0.00 0.00 90 1015.4
20260507051542 7 76 1.6 6.4 0.00 0.00 0.00 89 1015.5
20260507051022 7 55 1.6 6.4 0.00 0.00 0.00 90 1015.4
20260507050526 7 51 1.6 6.4 0.00 0.00 0.00 90 1015.5
20260507050039 7 93 0.0 8.0 0.00 0.00 0.00 90 1015.5
20260507045526 7 0 1.6 8.0 0.00 0.00 0.00 90 1015.4
20260507045025 7 9 1.6 6.4 0.00 0.00 0.00 89 1015.3
20260507044544 7 309 1.6 6.4 0.00 0.00 0.00 89 1015.3
20260507044026 7 34 1.6 6.4 0.00 0.00 0.00 89 1015.3
20260507043526 7 129 1.6 6.4 0.00 0.00 0.00 89 1015.2
20260507043036 7 0 0.0 6.4 0.00 0.00 0.00 89 1015.2
20260507042526 7 65 0.0 6.4 0.00 0.00 0.00 89 1015.2
20260507042026 7 76 1.6 6.4 0.00 0.00 0.00 89 1015.2
20260507041548 7 61 1.6 6.4 0.00 0.00 0.00 89 1015.2
20260507041026 7 0 0.0 6.4 0.00 0.00 0.00 89 1015.2
20260507040523 7 325 0.0 6.4 0.00 0.00 0.00 89 1015.1
20260507040044 7 80 1.6 6.4 0.00 0.00 0.00 90 1015.1
20260507035525 7 26 0.0 4.8 0.00 0.00 0.00 90 1015.2
20260507035027 7 61 0.0 6.4 0.00 0.00 0.00 89 1015.2
20260507034542 7 9 1.6 6.4 0.00 0.00 0.00 89 1015.2
20260507034022 7 51 1.6 4.8 0.00 0.00 0.00 89 1015.2
20260507033522 7 0 0.0 4.8 0.00 0.00 0.00 89 1015.1
20260507033042 7 51 0.0 4.8 0.00 0.00 0.00 88 1015.1
20260507032527 7 0 0.0 4.8 0.00 0.00 0.00 88 1015.1
20260507032026 7 0 0.0 4.8 0.00 0.00 0.00 88 1015.1
20260507031546 7 0 0.0 4.8 0.00 0.00 0.00 88 1015.1
20260507031029 7 76 0.0 4.8 0.00 0.00 0.00 88 1015.1
20260507030526 7 319 0.0 4.8 0.00 0.00 0.00 87 1015.1
20260507030047 7 298 0.0 4.8 0.00 0.00 0.00 87 1015.1
20260507025526 7 55 0.0 4.8 0.00 0.00 0.00 87 1015.1
20260507025026 7 9 0.0 4.8 0.00 0.00 0.00 87 1015.1
20260507024541 7 51 0.0 4.8 0.00 0.00 0.00 87 1015.1
20260507024025 7 65 0.0 4.8 0.00 0.00 0.00 87 1015.1
20260507023526 7 217 1.6 4.8 0.00 0.00 0.00 87 1015.1
20260507023040 7 51 0.0 6.4 0.00 0.00 0.00 88 1015.0
20260507022530 8 51 0.0 6.4 0.00 0.00 0.00 88 1015.0
20260507022027 8 34 0.0 3.2 0.00 0.00 0.00 88 1015.0
20260507021534 8 282 0.0 3.2 0.00 0.00 0.00 88 1015.0
20260507021023 8 0 0.0 3.2 0.00 0.00 0.00 88 1015.0
20260507020524 8 0 0.0 3.2 0.00 0.00 0.00 88 1015.0
20260507020039 8 9 0.0 3.2 0.00 0.00 0.00 88 1015.0
20260507015528 8 44 0.0 3.2 0.00 0.00 0.00 88 1014.9
20260507015024 8 0 0.0 3.2 0.00 0.00 0.00 88 1015.0
20260507014547 8 0 0.0 3.2 0.00 0.00 0.00 88 1014.9
20260507014024 8 22 0.0 3.2 0.00 0.00 0.00 88 1015.0
20260507013524 8 34 0.0 4.8 0.00 0.00 0.00 87 1015.0
20260507013036 8 0 0.0 4.8 0.00 0.00 0.00 88 1014.9
20260507012524 8 265 0.0 3.2 0.00 0.00 0.00 87 1014.9
20260507012026 8 41 0.0 3.2 0.00 0.00 0.00 87 1015.0
20260507011543 8 0 0.0 3.2 0.00 0.00 0.00 87 1015.0
20260507011023 8 309 0.0 3.2 0.00 0.00 0.00 87 1015.0
20260507010524 8 0 0.0 3.2 0.00 0.00 0.00 87 1015.0
20260507010038 8 0 0.0 3.2 0.00 0.00 0.00 86 1015.0
20260507005523 8 0 0.0 3.2 0.00 0.00 0.00 86 1015.0
20260507005023 8 0 0.0 3.2 0.00 0.00 0.00 86 1014.9
20260507004537 8 19 0.0 4.8 0.00 0.00 0.00 86 1014.9
20260507004026 8 34 0.0 4.8 0.00 0.00 0.00 86 1014.9
20260507003525 8 34 0.0 3.2 0.00 0.00 0.00 85 1014.9
20260507003051 8 265 0.0 3.2 0.00 0.00 0.00 85 1014.9
20260507002524 8 0 0.0 3.2 0.00 0.00 0.00 85 1015.0
20260507002025 8 0 0.0 4.8 0.00 0.00 0.00 85 1015.0
20260507001543 8 26 0.0 4.8 0.00 0.00 0.00 85 1015.0
20260507001024 8 0 0.0 4.8 0.00 0.00 0.00 85 1015.0
20260507000524 8 51 0.0 4.8 0.00 0.00 0.00 85 1014.9
20260507000043 8 178 1.6 4.8 0.00 0.00 0.00 85 1015.0
20260506235524 8 0 0.0 4.8 0.00 0.00 0.00 84 1015.0
20260506235023 8 34 0.0 4.8 0.00 0.00 0.00 84 1015.0
20260506234540 8 0 0.0 4.8 0.00 0.00 0.00 84 1015.0
20260506234024 8 31 0.0 6.4 0.00 0.00 0.00 84 1015.0
20260506233525 8 193 1.6 6.4 0.00 0.00 0.00 84 1015.0
20260506233042 8 0 0.0 4.8 0.00 0.00 0.00 83 1014.9
20260506232524 8 102 0.0 3.2 0.00 0.00 0.00 83 1015.0
20260506232024 8 0 0.0 6.4 0.00 0.00 0.00 83 1015.0
20260506231541 8 0 1.6 6.4 0.00 0.00 0.00 83 1015.0
20260506231024 8 51 0.0 3.2 0.00 0.00 0.00 83 1014.9
20260506230525 8 0 0.0 3.2 0.00 0.00 0.00 83 1015.0
20260506230036 8 0 0.0 3.2 0.00 0.00 0.00 83 1015.0
20260506225527 8 0 0.0 3.2 0.00 0.00 0.00 83 1015.0
20260506225024 8 334 0.0 3.2 0.00 0.00 0.00 83 1015.0
20260506224536 8 61 0.0 3.2 0.00 0.00 0.00 83 1015.0
20260506224023 8 0 0.0 3.2 0.00 0.00 0.00 82 1015.1
20260506223523 8 0 0.0 3.2 0.00 0.00 0.00 82 1015.0
20260506223040 8 51 0.0 4.8 0.00 0.00 0.00 82 1015.0
20260506222524 8 0 0.0 4.8 0.00 0.00 0.00 82 1014.9
20260506222023 8 309 0.0 3.2 0.00 0.00 0.00 82 1015.0
20260506221539 8 0 0.0 3.2 0.00 0.00 0.00 82 1014.9
20260506221026 8 34 0.0 3.2 0.00 0.00 0.00 81 1014.9
20260506220524 8 76 0.0 3.2 0.00 0.00 0.00 81 1014.9
20260506220038 8 59 0.0 3.2 0.00 0.00 0.00 81 1014.8
20260506215525 8 22 0.0 3.2 0.00 0.00 0.00 81 1014.9
20260506215028 9 0 0.0 3.2 0.00 0.00 0.00 81 1014.9
20260506214538 9 0 0.0 3.2 0.00 0.00 0.00 81 1014.8
20260506214025 9 51 0.0 3.2 0.00 0.00 0.00 80 1014.8
20260506213523 9 0 0.0 3.2 0.00 0.00 0.00 80 1014.8
20260506213036 9 325 0.0 4.8 0.00 0.00 0.00 80 1014.9
20260506212524 9 93 0.0 4.8 0.00 0.00 0.00 80 1014.7
20260506212025 9 0 0.0 4.8 0.00 0.00 0.00 80 1014.7
20260506211537 9 0 0.0 4.8 0.00 0.00 0.00 80 1014.7
20260506211024 9 0 0.0 4.8 0.00 0.00 0.00 80 1014.7
20260506210524 9 9 0.0 4.8 0.00 0.00 0.00 80 1014.7
20260506210040 9 68 0.0 4.8 0.00 0.00 0.00 80 1014.6
20260506205526 9 46 0.0 3.2 0.00 0.00 0.00 80 1014.6
20260506205023 9 0 0.0 3.2 0.00 0.00 0.00 80 1014.7
20260506204544 9 0 0.0 4.8 0.00 0.00 0.00 80 1014.7
20260506204023 9 72 0.0 4.8 0.00 0.00 0.00 79 1014.6
20260506203524 9 342 0.0 4.8 0.00 0.00 0.00 79 1014.6
20260506203037 9 0 0.0 4.8 0.00 0.00 0.00 79 1014.6
20260506202524 9 309 0.0 6.4 0.00 0.00 0.00 79 1014.6
20260506202024 9 34 1.6 6.4 0.00 0.00 0.00 79 1014.6
20260506201536 9 111 1.6 6.4 0.00 0.00 0.00 79 1014.5
20260506201023 9 34 0.0 6.4 0.00 0.00 0.00 79 1014.4
20260506200526 9 70 1.6 4.8 0.00 0.00 0.00 78 1014.3
20260506200036 9 9 0.0 4.8 0.00 0.00 0.00 78 1014.2
20260506195524 10 292 1.6 4.8 0.00 0.00 0.00 78 1014.2
20260506195024 10 341 1.6 6.4 0.00 0.00 0.00 78 1014.2
20260506194540 10 93 1.6 6.4 0.00 0.00 0.00 78 1014.1
20260506194024 10 9 1.6 6.4 0.00 0.00 0.00 77 1014.0
20260506193523 10 93 1.6 6.4 0.00 0.00 0.00 77 1014.0
20260506193039 10 0 1.6 6.4 0.00 0.00 0.00 77 1013.9
20260506192526 10 111 1.6 8.0 0.00 0.00 0.00 77 1013.8
20260506192024 10 22 1.6 8.0 0.00 0.00 0.00 77 1013.9
20260506191538 10 0 1.6 6.4 0.00 0.00 0.00 76 1013.7
20260506191023 10 26 1.6 6.4 0.00 0.00 0.00 76 1013.7
20260506190522 10 0 1.6 6.4 0.00 0.00 0.00 76 1013.6
20260506190037 10 0 1.6 8.0 0.00 0.00 0.00 75 1013.6
20260506185524 10 63 1.6 8.0 0.00 0.00 0.00 75 1013.6
20260506185026 10 9 1.6 9.7 0.00 0.00 0.00 74 1013.3
20260506184536 11 61 1.6 11.3 0.00 0.00 0.00 74 1013.4
20260506184024 11 22 1.6 11.3 0.00 0.00 0.00 73 1013.4
20260506183524 11 49 1.6 6.4 0.00 0.00 0.00 71 1013.3
20260506183042 11 30 1.6 6.4 0.00 0.00 0.00 70 1013.2
20260506182523 11 221 1.6 8.0 0.00 0.00 0.00 70 1013.2
20260506182024 11 0 1.6 8.0 0.00 0.00 0.00 70 1013.2
20260506181539 11 0 0.0 8.0 0.00 0.00 0.00 69 1013.2
20260506181024 11 44 1.6 8.0 0.00 0.00 0.00 69 1013.1
20260506180524 11 309 1.6 6.4 0.00 0.00 0.00 68 1013.1
20260506180048 12 57 1.6 6.4 0.00 0.00 0.00 68 1013.1
20260506175523 12 68 1.6 8.0 0.00 0.00 0.00 67 1013.0
20260506175027 12 316 0.0 8.0 0.00 0.00 0.00 67 1012.9
20260506174542 12 51 1.6 6.4 0.00 0.00 0.00 67 1012.9
20260506174024 12 38 1.6 6.4 0.00 0.00 0.00 67 1012.8
20260506173524 12 178 1.6 8.0 0.00 0.00 0.00 67 1012.8
20260506173038 12 193 1.6 8.0 0.00 0.00 0.00 67 1012.9
20260506172525 12 190 1.6 4.8 0.00 0.00 0.00 67 1012.8
20260506172024 12 24 1.6 9.7 0.00 0.00 0.00 67 1012.8
20260506171537 12 325 1.6 9.7 0.00 0.00 0.00 66 1012.8
20260506171024 12 292 1.6 9.7 0.00 0.00 0.00 66 1012.8
20260506170524 12 292 1.6 8.0 0.00 0.00 0.00 66 1012.7
20260506170053 12 51 1.6 6.4 0.00 0.00 0.00 65 1012.7
20260506165524 12 309 1.6 6.4 0.00 0.00 0.00 65 1012.7
20260506165024 12 0 1.6 6.4 0.00 0.00 0.00 65 1012.7
20260506164539 12 282 1.6 12.9 0.00 0.00 0.00 65 1012.7
20260506164023 12 282 1.6 12.9 0.00 0.00 0.00 65 1012.6
20260506163523 12 0 1.6 8.0 0.00 0.00 0.00 64 1012.8
20260506163057 12 17 1.6 8.0 0.00 0.00 0.00 64 1012.8
20260506162527 12 34 1.6 9.7 0.00 0.00 0.00 64 1012.8
20260506162026 12 0 1.6 9.7 0.00 0.00 0.00 63 1012.8
20260506161538 12 314 3.2 14.5 0.00 0.00 0.00 63 1012.8
20260506161027 12 57 1.6 14.5 0.00 0.00 0.00 63 1012.8
20260506160526 12 319 1.6 9.7 0.00 0.00 0.00 63 1012.9
20260506160037 12 0 1.6 9.7 0.00 0.00 0.00 62 1012.8
20260506155527 12 51 1.6 9.7 0.00 0.00 0.00 59 1012.8
20260506155027 13 26 1.6 14.5 0.00 0.00 0.00 58 1012.8
20260506154550 13 251 1.6 14.5 0.00 0.00 0.00 58 1012.8
20260506154028 13 342 1.6 12.9 0.00 0.00 0.00 57 1012.8
20260506153524 13 0 1.6 12.9 0.00 0.00 0.00 55 1012.8
20260506153049 13 321 1.6 8.0 0.00 0.00 0.00 57 1012.8
20260506152523 13 0 1.6 8.0 0.00 0.00 0.00 56 1012.8
20260506152026 13 30 1.6 9.7 0.00 0.00 0.00 56 1012.7
20260506151541 13 332 1.6 9.7 0.00 0.00 0.00 57 1012.7
20260506151024 13 334 1.6 12.9 0.00 0.00 0.00 55 1012.7
20260506150523 13 273 1.6 12.9 0.00 0.00 0.00 56 1012.7
20260506150038 13 108 1.6 9.7 0.00 0.00 0.00 55 1012.7
20260506145527 13 342 1.6 9.7 0.00 0.00 0.00 55 1012.6
20260506145027 13 165 1.6 6.4 0.00 0.00 0.00 54 1012.7
20260506144538 13 93 1.6 6.4 0.00 0.00 0.00 52 1012.7
20260506144027 13 0 0.0 11.3 0.00 0.00 0.00 52 1012.6
20260506143530 13 311 1.6 11.3 0.00 0.00 0.00 53 1012.6
20260506143047 14 103 1.6 11.3 0.00 0.00 0.00 52 1012.5
20260506142525 14 0 1.6 16.1 0.00 0.00 0.00 50 1012.6
20260506142027 15 34 3.2 16.1 0.00 0.00 0.00 47 1012.5
20260506141542 15 312 3.2 16.1 0.00 0.00 0.00 45 1012.5
20260506141026 15 9 1.6 16.1 0.00 0.00 0.00 46 1012.5
20260506140525 15 304 1.6 12.9 0.00 0.00 0.00 46 1012.5
20260506140039 15 59 1.6 12.9 0.00 0.00 0.00 49 1012.7
20260506135523 15 309 3.2 11.3 0.00 0.00 0.00 47 1012.6
20260506135023 15 17 3.2 12.9 0.00 0.00 0.00 49 1012.6
20260506134539 15 221 1.6 12.9 0.00 0.00 0.00 49 1012.5
20260506134026 15 9 1.6 11.3 0.00 0.00 0.00 51 1012.6
20260506133523 15 26 3.2 17.7 0.00 0.00 0.00 48 1012.5
20260506133037 16 38 3.2 17.7 0.00 0.00 0.00 48 1012.7
20260506132524 16 298 4.8 17.7 0.00 0.00 0.00 45 1012.5
20260506132024 15 93 3.2 16.1 0.00 0.00 0.00 47 1012.5
20260506131536 15 309 3.2 16.1 0.00 0.00 0.00 47 1012.5
20260506131025 15 309 4.8 16.1 0.00 0.00 0.00 49 1012.5
20260506130527 15 301 3.2 14.5 0.00 0.00 0.00 47 1012.5
20260506130035 15 126 3.2 16.1 0.00 0.00 0.00 49 1012.5
20260506125523 15 41 1.6 16.1 0.00 0.00 0.00 53 1012.5
20260506125029 14 93 4.8 16.1 0.00 0.00 0.00 50 1012.5
20260506124541 14 13 3.2 19.3 0.00 0.00 0.00 51 1012.5
20260506124023 14 212 3.2 19.3 0.00 0.00 0.00 52 1012.5
20260506123523 14 269 4.8 16.1 0.00 0.00 0.00 52 1012.5
20260506123039 15 304 3.2 22.5 0.00 0.00 0.00 50 1012.5
20260506122524 15 51 3.2 22.5 0.00 0.00 0.00 53 1012.4
20260506122023 15 315 6.4 19.3 0.00 0.00 0.00 51 1012.4
20260506121543 15 325 4.8 16.1 0.00 0.00 0.00 52 1012.4
20260506121024 14 314 4.8 17.7 0.00 0.00 0.00 53 1012.4
20260506120527 14 117 3.2 20.9 0.00 0.00 0.00 54 1012.6
20260506120036 14 93 3.2 20.9 0.00 0.00 0.00 52 1012.5
20260506115527 14 296 6.4 20.9 0.00 0.00 0.00 52 1012.5
20260506115026 14 209 3.2 14.5 0.00 0.00 0.00 55 1012.5
20260506114542 14 309 3.2 14.5 0.00 0.00 0.00 54 1012.6
20260506114024 14 309 4.8 14.5 0.00 0.00 0.00 53 1012.5
20260506113524 14 24 3.2 14.5 0.00 0.00 0.00 57 1012.5
20260506113040 13 321 3.2 17.7 0.00 0.00 0.00 57 1012.5
20260506112526 14 218 3.2 19.3 0.00 0.00 0.00 57 1012.5
20260506112030 14 61 4.8 19.3 0.00 0.00 0.00 56 1012.5
20260506111542 14 265 3.2 16.1 0.00 0.00 0.00 55 1012.5
20260506111023 14 51 3.2 17.7 0.00 0.00 0.00 57 1012.5
20260506110527 13 309 3.2 17.7 0.00 0.00 0.00 57 1012.5
20260506110038 14 321 4.8 16.1 0.00 0.00 0.00 56 1012.5
20260506105522 14 64 3.2 16.1 0.00 0.00 0.00 54 1012.5
20260506105023 15 221 3.2 16.1 0.00 0.00 0.00 54 1012.6
20260506104535 15 9 3.2 20.9 0.00 0.00 0.00 55 1012.5
20260506104023 15 291 3.2 20.9 0.00 0.00 0.00 56 1012.4
20260506103523 15 342 4.8 20.9 0.00 0.00 0.00 56 1012.5
20260506103036 14 265 3.2 16.1 0.00 0.00 0.00 57 1012.5
20260506102527 14 265 3.2 16.1 0.00 0.00 0.00 59 1012.4
20260506102027 13 34 3.2 16.1 0.00 0.00 0.00 61 1012.4
20260506101536 13 51 3.2 12.9 0.00 0.00 0.00 63 1012.5
20260506101026 12 57 3.2 19.3 0.00 0.00 0.00 62 1012.6
20260506100527 12 93 4.8 19.3 0.00 0.00 0.00 61 1012.5
20260506100042 13 314 4.8 16.1 0.00 0.00 0.00 61 1012.7
20260506095526 13 0 3.2 16.1 0.00 0.00 0.00 60 1012.6
20260506095023 13 291 3.2 16.1 0.00 0.00 0.00 63 1012.6
20260506094549 13 72 3.2 19.3 0.00 0.00 0.00 61 1012.7
20260506094023 12 340 3.2 19.3 0.00 0.00 0.00 61 1012.7
20260506093523 12 309 4.8 17.7 0.00 0.00 0.00 60 1012.8
20260506093037 12 9 3.2 16.1 0.00 0.00 0.00 62 1012.7
20260506092523 12 74 3.2 17.7 0.00 0.00 0.00 64 1012.6
20260506092024 12 292 4.8 22.5 0.00 0.00 0.00 65 1012.5
20260506091536 12 212 4.8 22.5 0.00 0.00 0.00 65 1012.6
20260506091023 12 286 11.3 22.5 0.00 0.00 0.00 64 1012.5
20260506090523 12 24 3.2 19.3 0.00 0.00 0.00 66 1012.6
20260506090035 12 332 4.8 20.9 0.00 0.00 0.00 66 1012.5
20260506085526 12 311 3.2 20.9 0.00 0.00 0.00 66 1012.5
20260506085026 12 310 4.8 20.9 0.00 0.00 0.00 67 1012.4
20260506084546 12 344 6.4 20.9 0.00 0.00 0.00 66 1012.5
20260506084026 12 310 3.2 20.9 0.00 0.00 0.00 68 1012.4
20260506083524 12 298 8.0 20.9 0.00 0.00 0.00 67 1012.3
20260506083040 11 328 3.2 17.7 0.00 0.00 0.00 67 1012.4
20260506082523 11 292 4.8 17.7 0.00 0.00 0.00 68 1012.4
20260506082023 11 9 3.2 17.7 0.00 0.00 0.00 70 1012.4
20260506081541 11 334 6.4 17.7 0.00 0.00 0.00 70 1012.3
20260506081023 11 61 3.2 16.1 0.00 0.00 0.00 71 1012.3
20260506080523 11 51 4.8 16.1 0.00 0.00 0.00 71 1012.4
20260506073524 10 307 1.6 14.5 0.00 0.00 0.00 75 1012.2
20260506073046 10 9 3.2 14.5 0.00 0.00 0.00 77 1012.2
20260506072526 10 146 3.2 12.9 0.00 0.00 0.00 77 1012.2
20260506072026 10 111 3.2 12.9 0.00 0.00 0.00 77 1012.2
20260506071542 10 9 3.2 11.3 0.00 0.00 0.00 78 1012.1
20260506071025 9 329 3.2 14.5 0.00 0.00 0.00 79 1012.1
20260506070524 9 305 3.2 14.5 0.00 0.00 0.00 79 1012.2
20260506062023 8 61 1.6 9.7 0.00 0.00 0.00 82 1012.2
20260506061537 8 325 1.6 8.0 0.00 0.00 0.00 83 1012.1
20260506061022 8 0 1.6 8.0 0.00 0.00 0.00 83 1012.2
20260506060522 8 292 1.6 8.0 0.00 0.00 0.00 84 1012.1